Location: Unspecified
(0.0000°N, 0.0000°E)
Time: 20:26:06
(UTC+00:00)

Vanguard 1 - Pass Details

Date: 13 December 2017
Orbit: 650 x 3833 km, 34.3° (Epoch: 23 June)

Event Time Altitude Azimuth Distance (km) Brightness Sun altitude
Rises 05:58:02 0° 235° (SW) 6,838 14.0 0.9°
Reaches altitude 10° 06:02:02 10° 235° (SW) 6,124 13.8 1.8°
Maximum altitude 06:23:49 83° 321° (NW) 3,850 13.1 6.8°
Drops below altitude 10° 06:46:01 10° 49° (NE) 6,202 14.5 11.9°
Sets 06:50:06 0° 50° (NE) 6,922 14.8 12.8°
